Dallesport, WA

12:13 AM PST on February 24, 2017 (GMT -0800)
Columbia Gorge Regional-The Dalles

Weather History for KDLS - August, 2013

Change the Weather History Date:

Saturday, August 3, 2013

  Actual Average Record
Temperature  
Mean Temperature 74 °F -  
Max Temperature 90 °F 91 °F 106 °F (1978)
Min Temperature 59 °F 60 °F 50 °F (2002)
Cooling Degree Days 9    
Growing Degree Days 24 (Base 50)    
Moisture  
Dew Point 53 °F    
Average Humidity 51    
Maximum Humidity 78    
Minimum Humidity 26    
Precipitation  
Precipitation 0.00 in - - ()
Sea Level Pressure  
Sea Level Pressure 30.00 in    
Wind  
Wind Speed 7 mph (NW)    
Max Wind Speed 15 mph    
Max Gust Speed 18 mph    
Visibility 10 miles    
Events      
Averages and records for this station are not official NWS values.
T = Trace of Precipitation, MM = Missing Value Source: NWS Daily Summary

Daily Weather History Graph

Daily Weather History Graph

Search for Another Location

Airport or City:

Trip Planner

Search our weather history database for the weather conditions in past years. The results will help you decide how hot, cold, wet, or windy it might be!

Date:

Astronomy

Aug. 03, 2013 Rise Set
Actual Time 5:50 AM PDT 8:29 PM PDT
Civil Twilight 5:17 AM PDT 9:03 PM PDT
Nautical Twilight 4:34 AM PDT 9:46 PM PDT
Astronomical Twilight 3:44 AM PDT 10:35 PM PDT
Moon 3:02 AM PDT (8/3) 6:17 PM PDT (8/3)
Length of Visible Light 15h 46m
Length of Day
14h 38m
Waning Crescent, 9% of the Moon is Illuminated
Aug 3
Waning Crescent
Aug 6
New
Aug 14
First Quarter
Aug 20
Full
Aug 28
Last Quarter

Hourly Weather History & Observations

Time (PDT) Temp. Heat Index Dew Point Humidity Pressure Visibility Wind Dir Wind Speed Gust Speed Precip Events Conditions
12:53 AM 64.9 °F - 53.1 °F 65% 30.04 in 10.0 mi NW 9.2 mph - N/A   Clear
1:53 AM 64.0 °F - 53.1 °F 67% 30.03 in 10.0 mi NNW 11.5 mph 18.4 mph N/A   Clear
2:53 AM 64.0 °F - 53.1 °F 67% 30.04 in 10.0 mi NW 10.4 mph - N/A   Clear
3:53 AM 60.1 °F - 51.1 °F 72% 30.04 in 10.0 mi SW 4.6 mph - N/A   Partly Cloudy
4:53 AM 60.1 °F - 51.1 °F 72% 30.05 in 10.0 mi Calm Calm - N/A   Clear
5:53 AM 59.0 °F - 52.0 °F 78% 30.06 in 10.0 mi Calm Calm - N/A   Clear
6:53 AM 60.1 °F - 52.0 °F 75% 30.08 in 10.0 mi Calm Calm - N/A   Clear
7:53 AM 64.0 °F - 55.0 °F 73% 30.08 in 10.0 mi NW 8.1 mph - N/A   Clear
8:53 AM 66.9 °F - 54.0 °F 63% 30.08 in 10.0 mi NNW 4.6 mph - N/A   Clear
9:53 AM 72.0 °F - 54.0 °F 53% 30.07 in 10.0 mi NNW 5.8 mph - N/A   Clear
10:53 AM 75.0 °F - 54.0 °F 48% 30.06 in 10.0 mi NW 4.6 mph - N/A   Clear
11:53 AM 77.0 °F - 53.1 °F 43% 30.04 in 10.0 mi Calm Calm - N/A   Clear
12:53 PM 80.1 °F 79.9 °F 53.1 °F 39% 30.02 in 10.0 mi Calm Calm - N/A   Clear
1:53 PM 84.0 °F - 51.1 °F 32% 30.00 in 10.0 mi Variable 4.6 mph - N/A   Clear
2:53 PM 87.1 °F - 50.0 °F 28% 29.97 in 10.0 mi Variable 3.5 mph - N/A   Clear
3:53 PM 89.1 °F - 50.0 °F 26% 29.95 in 10.0 mi NW 5.8 mph - N/A   Clear
4:53 PM 89.1 °F - 52.0 °F 28% 29.94 in 10.0 mi NW 9.2 mph - N/A   Clear
5:53 PM 89.1 °F - 52.0 °F 28% 29.92 in 10.0 mi NNW 10.4 mph - N/A   Clear
6:53 PM 84.0 °F 82.6 °F 54.0 °F 35% 29.91 in 10.0 mi NNW 11.5 mph - N/A   Mostly Cloudy
7:53 PM 82.0 °F 81.4 °F 55.0 °F 39% 29.91 in 10.0 mi NW 12.7 mph - N/A   Scattered Clouds
8:53 PM 79.0 °F - 55.9 °F 45% 29.93 in 10.0 mi NNW 15.0 mph - N/A   Clear
9:53 PM 77.0 °F - 55.9 °F 48% 29.95 in 10.0 mi NW 9.2 mph - N/A   Clear
10:53 PM 75.0 °F - 55.0 °F 50% 29.96 in 10.0 mi NNE 4.6 mph - N/A   Clear
11:53 PM 73.9 °F - 54.0 °F 50% 29.97 in 10.0 mi Calm Calm - N/A   Clear